Regional Weather Roundup
Issued by NWS

Home | Current Version | Previous Version | Text Only | Print | Product List | Glossary Off
Versions: 1 2 3 4 5 6 7 8 9 10 11 12 13 14 15 16 17 18 19 20 21 22 23 24 25 26 27 28 29 30 31 32 33 34 35 36 37 38 39 40 41 42 43 44 45 46 47 48 49 50

000
ASUS45 KCYS 191710
RWRWY

WYOMING REGIONAL WEATHER ROUNDUP
NATIONAL WEATHER SERVICE CHEYENNE WY
1000 AM MST FRI DEC 19 2014

NOTE:  "FAIR" INDICATES FEW OR NO CLOUDS BELOW 12,000 FEET
WITH NO SIGNIFICANT WEATHER AND/OR OBSTRUCTIONS TO VISIBILITY.

WYZ001-191800-
YELLOWSTONE NATIONAL PARK

CITY           SKY/WX    TMP DP  RH WIND       PRES   REMARKS
LK YELLOWSTONE   N/A     26  21  81 VRB3      30.07S
W YELLOWSTONE  NOT AVBL

$$
WYZ002>013-054>058-071-098>099-191800-
NORTHERN WYOMING

CITY           SKY/WX    TMP DP  RH WIND       PRES   REMARKS
JACKSON        PTSUNNY   28  25  86 CALM      30.11R
CODY           FAIR      39  21  48 W8        29.95F WCI  34
GREYBULL       FAIR      13   9  84 CALM      30.05S
WORLAND        FAIR      10   5  80 W5        30.03F WCI   2
SHERIDAN       FAIR      34  17  50 CALM      29.95S
BUFFALO        FAIR      40  16  37 VRB3      29.96S
GILLETTE       FAIR      36  17  46 SW15      29.96S WCI  27
HULETT           N/A    N/A N/A N/A MISG        N/A
NEWCASTLE      FAIR      27  21  80 CALM      30.03R

$$
WYZ014>020-022>026-101>103-191800-
CENTRAL WYOMING

CITY           SKY/WX    TMP DP  RH WIND       PRES   REMARKS
BIG PINEY      CLOUDY    19  15  84 CALM      30.14R
PINEDALE       CLOUDY    23  21  93 NW5       30.14R WCI  17
DUBOIS         CLOUDY    32  19  59 NW21G30   30.02S WCI  20
LANDER         FAIR       7   6  96 CALM      30.04F
RIVERTON       FOG        5   3  91 SW3       30.06S VSB 1/4
CASPER         FAIR      27  18  69 SW24G32   30.04S WCI  12
DOUGLAS        FAIR      32  19  58 NW3       30.04S

$$
WYZ021-027>030-104>119-191800-
SOUTHERN WYOMING

CITY           SKY/WX    TMP DP  RH WIND       PRES   REMARKS
EVANSTON       CLOUDY    25  22  88 SW9       30.16S WCI  15
KEMMERER       FAIR      28  23  80 SW8       30.14S WCI  20
FORT BRIDGER   FAIR      35  21  57 SW16      30.17F WCI  25
ROCK SPRINGS   CLOUDY    28  18  66 SW17      30.15R WCI  16
DIXON          CLOUDY   N/A N/A N/A SW10      30.25R
RAWLINS        FAIR      26  18  71 SW18      30.11S WCI  13
SARATOGA       FAIR      25  19  80 SW10      30.14S WCI  15
LARAMIE        FAIR      27  15  61 SW21      30.07R WCI  13
CHEYENNE       FAIR      36  14  40 W22G32    30.05S WCI  25
TORRINGTON     FAIR     N/A N/A N/A NE5       30.04S
PINE BLUFFS    FAIR      37  19  48 W21G29    30.07S WCI  27

$$


USA.gov is the U.S. government's official web portal to all federal, state and local government web resources and services.